TimeEDT,TemperatureF,Dew PointF,Humidity,Sea Level PressureIn,VisibilityMPH,Wind Direction,Wind SpeedMPH,Gust SpeedMPH,PrecipitationIn,Events,Conditions,WindDirDegrees,DateUTC
12:53 AM,61.0,55.0,81,29.99,10.0,NNW,4.6,-,N/A,,Clear,330,2013-06-14 04:53:00
1:53 AM,59.0,54.0,83,29.99,10.0,North,4.6,-,N/A,,Clear,360,2013-06-14 05:53:00
2:53 AM,57.9,54.0,87,29.99,10.0,North,4.6,-,N/A,,Clear,350,2013-06-14 06:53:00
3:53 AM,57.0,53.1,87,30.00,10.0,North,3.5,-,N/A,,Clear,360,2013-06-14 07:53:00
4:53 AM,55.9,52.0,87,30.01,10.0,NNW,4.6,-,N/A,,Clear,340,2013-06-14 08:53:00
5:53 AM,55.0,52.0,89,30.02,10.0,North,4.6,-,N/A,,Clear,10,2013-06-14 09:53:00
6:53 AM,55.9,52.0,87,30.04,10.0,North,4.6,-,N/A,,Clear,10,2013-06-14 10:53:00
7:53 AM,59.0,53.1,81,30.07,10.0,North,5.8,-,N/A,,Clear,360,2013-06-14 11:53:00
8:53 AM,62.1,53.1,72,30.09,10.0,NNE,9.2,-,N/A,,Clear,30,2013-06-14 12:53:00
9:53 AM,64.9,54.0,68,30.12,10.0,NNE,5.8,-,N/A,,Clear,30,2013-06-14 13:53:00
10:53 AM,68.0,54.0,61,30.11,10.0,NE,5.8,-,N/A,,Clear,40,2013-06-14 14:53:00
11:53 AM,70.0,53.1,55,30.11,10.0,NNW,5.8,-,N/A,,Clear,340,2013-06-14 15:53:00
12:53 PM,72.0,53.1,51,30.10,10.0,Variable,3.5,-,N/A,,Clear,0,2013-06-14 16:53:00
1:53 PM,73.9,50.0,43,30.08,10.0,ENE,8.1,-,N/A,,Clear,70,2013-06-14 17:53:00
2:53 PM,75.0,51.1,43,30.06,10.0,North,8.1,-,N/A,,Clear,360,2013-06-14 18:53:00
3:53 PM,75.9,52.0,43,30.07,10.0,Calm,Calm,-,N/A,,Clear,0,2013-06-14 19:53:00
4:53 PM,75.9,50.0,40,30.06,10.0,NNW,6.9,-,N/A,,Clear,330,2013-06-14 20:53:00
5:53 PM,77.0,48.0,36,30.06,10.0,North,6.9,-,N/A,,Clear,350,2013-06-14 21:53:00
6:53 PM,77.0,48.9,37,30.05,10.0,NE,4.6,-,N/A,,Clear,50,2013-06-14 22:53:00
7:53 PM,75.0,48.0,38,30.04,10.0,North,4.6,-,N/A,,Partly Cloudy,360,2013-06-14 23:53:00
8:53 PM,73.0,48.9,42,30.04,10.0,NNW,3.5,-,N/A,,Clear,340,2013-06-15 00:53:00
9:53 PM,66.9,54.0,63,30.06,10.0,NW,3.5,-,N/A,,Clear,320,2013-06-15 01:53:00
10:53 PM,66.0,55.9,70,30.06,10.0,Calm,Calm,-,N/A,,Clear,0,2013-06-15 02:53:00
11:53 PM,62.1,55.0,78,30.05,10.0,Calm,Calm,-,N/A,,Clear,0,2013-06-15 03:53:00